Location: ???????
(55.4362°N, 38.1183°E)
Time: 20:37:15
(UTC+00:00)

M-CUBED/EXP-1 PRIME - Pass Details

Date: 13 December 2021
Orbit: 426 x 650 km, 101.7° (Epoch: 26 January)

Event Time Altitude Azimuth Distance (km) Brightness Sun altitude
Rises 14:42:16 0° 148° (SSE) 2,893 ? -13.6°
Reaches altitude 10° 14:44:25 10° 146° (SE) 2,013 ? -13.8°
Maximum altitude 14:48:47 68° 64° (ENE) 701 ? -14.4°
Drops below altitude 10° 14:53:18 10° 342° (NNW) 2,075 ? -15.0°
Sets 14:55:33 0° 340° (NNW) 2,990 ? -15.3°
